Shirley, NY

2:37 AM EDT on September 26, 2017 (GMT -0400)
Brookhaven

Weather History for KHWV - December, 2012

Change the Weather History Date:

Tuesday, December 4, 2012

  Actual Average (KISP) Record (KISP)
Temperature  
Mean Temperature 48 °F -  
Max Temperature 59 °F 45 °F 73 °F (1998)
Min Temperature 36 °F 30 °F 15 °F (2002)
Degree Days  
Heating Degree Days 18    
Moisture  
Dew Point 49 °F    
Average Humidity 92    
Maximum Humidity 100    
Minimum Humidity 87    
Precipitation  
Precipitation 0.09 in - - ()
Sea Level Pressure  
Sea Level Pressure 30.21 in    
Wind  
Wind Speed 4 mph (South)    
Max Wind Speed 13 mph    
Max Gust Speed 20 mph    
Visibility 6 miles    
Events Rain    
Averages and records for this station are not official NWS values.
T = Trace of Precipitation, MM = Missing Value Source: NWS Daily Summary

Daily Weather History Graph

Daily Weather History Graph

Search for Another Location

Airport or City:

Trip Planner

Search our weather history database for the weather conditions in past years. The results will help you decide how hot, cold, wet, or windy it might be!

Date:

Astronomy

Dec. 04, 2012 Rise Set
Actual Time 6:59 AM EST 4:23 PM EST
Civil Twilight 6:29 AM EST 4:54 PM EST
Nautical Twilight 5:55 AM EST 5:28 PM EST
Astronomical Twilight 5:21 AM EST 6:01 PM EST
Moon 10:09 PM EST (12/4) 10:51 AM EST (12/4)
Length of Visible Light 10h 25m
Length of Day
9h 23m
Waning Gibbous, 69% of the Moon is Illuminated
Dec 4
Waning Gibbous
Dec 6
Last Quarter
Dec 13
New
Dec 20
First Quarter
Dec 28
Full

Hourly Weather History & Observations

Time (EST) Temp. Dew Point Humidity Pressure Visibility Wind Dir Wind Speed Gust Speed Precip Events Conditions
12:56 AM 36.0 °F 34.0 °F 93% 30.28 in 4.0 mi Calm Calm - N/A   Clear
1:56 AM 36.0 °F 34.0 °F 93% 30.29 in 6.0 mi Calm Calm - N/A   Clear
2:56 AM 36.0 °F 34.0 °F 93% 30.29 in 6.0 mi Calm Calm - N/A   Clear
3:56 AM 37.9 °F 35.1 °F 89% 30.28 in 7.0 mi Calm Calm - N/A   Mostly Cloudy
4:56 AM 37.0 °F 35.1 °F 93% 30.28 in 6.0 mi Calm Calm - N/A   Scattered Clouds
5:56 AM 39.9 °F 37.9 °F 93% 30.29 in 9.0 mi Calm Calm - N/A   Mostly Cloudy
6:56 AM 44.1 °F 41.0 °F 89% 30.29 in 7.0 mi Calm Calm - N/A   Overcast
7:56 AM 46.0 °F 44.1 °F 93% 30.30 in 5.0 mi Calm Calm - 0.00 in Rain Light Rain
8:08 AM 46.4 °F 44.6 °F 93% 30.30 in 1.8 mi Calm Calm - 0.02 in Rain Rain
8:17 AM 46.4 °F 44.6 °F 93% 30.30 in 2.5 mi Calm Calm - 0.02 in Rain Light Rain
8:33 AM 46.4 °F 44.6 °F 93% 30.30 in 1.8 mi Calm Calm - 0.03 in Rain Light Rain
8:43 AM 48.2 °F 46.4 °F 93% 30.30 in 2.0 mi Calm Calm - 0.04 in Rain Light Rain
8:56 AM 48.0 °F 46.9 °F 96% 30.30 in 2.0 mi Calm Calm - 0.04 in Rain Light Rain
9:45 AM 51.8 °F 50.0 °F 94% 30.30 in 1.5 mi SSE 4.6 mph - 0.01 in Rain Light Rain
9:56 AM 52.0 °F 51.1 °F 97% 30.30 in 1.8 mi SSE 5.8 mph - 0.02 in Rain Light Rain
10:19 AM 53.6 °F 53.6 °F 100% 30.29 in 2.5 mi SSE 6.9 mph - 0.02 in Rain Light Rain
10:34 AM 55.4 °F 53.6 °F 94% 30.28 in 4.0 mi SSE 12.7 mph - 0.02 in Rain Light Rain
10:56 AM 55.9 °F 54.0 °F 93% 30.27 in 6.0 mi South 10.4 mph - 0.03 in Rain Light Rain
11:56 AM 59.0 °F 55.0 °F 87% 30.25 in 8.0 mi South 10.4 mph - 0.00 in   Overcast
12:56 PM 59.0 °F 55.0 °F 87% 30.22 in 10.0 mi South 12.7 mph - N/A   Mostly Cloudy
1:56 PM 59.0 °F 55.9 °F 90% 30.20 in 10.0 mi South 10.4 mph 19.6 mph N/A   Mostly Cloudy
2:56 PM 57.9 °F 55.0 °F 90% 30.19 in 10.0 mi South 10.4 mph - N/A   Scattered Clouds
3:15 PM 57.2 °F 53.6 °F 88% 30.18 in 8.0 mi South 5.8 mph - N/A   Mostly Cloudy
3:56 PM 55.9 °F 54.0 °F 93% 30.17 in 6.0 mi South 8.1 mph - N/A   Mostly Cloudy
4:07 PM 57.2 °F 53.6 °F 88% 30.17 in 7.0 mi South 10.4 mph - N/A   Scattered Clouds
4:56 PM 57.0 °F 54.0 °F 89% 30.17 in 10.0 mi South 10.4 mph - N/A   Partly Cloudy
5:56 PM 57.0 °F 55.0 °F 93% 30.15 in 10.0 mi South 10.4 mph - N/A   Scattered Clouds
6:12 PM 57.2 °F 55.4 °F 94% 30.15 in 9.0 mi SSE 10.4 mph - N/A   Partly Cloudy
6:56 PM 57.0 °F 54.0 °F 89% 30.14 in 9.0 mi South 9.2 mph 18.4 mph N/A   Mostly Cloudy
7:12 PM 57.2 °F 55.4 °F 94% 30.13 in 10.0 mi South 12.7 mph - N/A   Mostly Cloudy
7:56 PM 55.9 °F 54.0 °F 93% 30.12 in 8.0 mi SSW 6.9 mph - N/A   Overcast
8:10 PM 55.4 °F 53.6 °F 94% 30.11 in 7.0 mi SSW 6.9 mph - N/A   Overcast
8:56 PM 55.9 °F 54.0 °F 93% 30.09 in 6.0 mi South 8.1 mph - N/A   Overcast
9:56 PM 55.9 °F 54.0 °F 93% 30.07 in 6.0 mi SSW 6.9 mph - N/A   Overcast
10:35 PM 55.4 °F 53.6 °F 94% 30.06 in 8.0 mi South 8.1 mph - N/A   Mostly Cloudy
10:45 PM 55.4 °F 53.6 °F 94% 30.06 in 8.0 mi SSW 6.9 mph - N/A   Scattered Clouds
10:56 PM 55.0 °F 53.1 °F 93% 30.05 in 8.0 mi South 8.1 mph - N/A   Partly Cloudy
11:56 PM 54.0 °F 52.0 °F 93% 30.02 in 8.0 mi SSW 10.4 mph - N/A   Clear